TimeEST,TemperatureF,Dew PointF,Humidity,Sea Level PressureIn,VisibilityMPH,Wind Direction,Wind SpeedMPH,Gust SpeedMPH,PrecipitationIn,Events,Conditions,WindDirDegrees,DateUTC
12:53 AM,69.1,66.0,90,30.08,5.0,Calm,Calm,-,N/A,,Overcast,0,2014-02-01 05:53:00
1:03 AM,69.8,66.2,88,30.08,5.0,Calm,Calm,-,N/A,,Overcast,0,2014-02-01 06:03:00
1:53 AM,69.1,66.9,93,30.08,2.0,Calm,Calm,-,N/A,,Overcast,0,2014-02-01 06:53:00
2:04 AM,69.8,66.2,88,30.08,1.0,Calm,Calm,-,N/A,,Overcast,0,2014-02-01 07:04:00
2:14 AM,69.8,66.2,88,30.08,0.8,Calm,Calm,-,N/A,,Overcast,0,2014-02-01 07:14:00
2:23 AM,69.8,68.0,94,30.08,0.5,Calm,Calm,-,0.00,Fog-Rain,Light Rain,0,2014-02-01 07:23:00
2:53 AM,71.1,69.1,93,30.07,0.8,Calm,Calm,-,0.00,,Overcast,0,2014-02-01 07:53:00
3:06 AM,71.6,69.8,94,30.07,0.5,Calm,Calm,-,N/A,Fog,Fog,0,2014-02-01 08:06:00
3:20 AM,71.6,69.8,94,30.07,0.2,South,3.5,-,N/A,Fog,Fog,180,2014-02-01 08:20:00
3:53 AM,71.1,69.1,93,30.07,0.2,Calm,Calm,-,N/A,Fog,Fog,0,2014-02-01 08:53:00
4:53 AM,71.1,69.1,93,30.07,0.2,Calm,Calm,-,N/A,Fog,Fog,0,2014-02-01 09:53:00
5:53 AM,71.1,70.0,96,30.08,0.2,Calm,Calm,-,N/A,Fog,Fog,0,2014-02-01 10:53:00
6:41 AM,69.8,69.8,100,30.10,0.2,Calm,Calm,-,N/A,Fog,Fog,0,2014-02-01 11:41:00
6:49 AM,69.8,69.8,100,30.10,0.2,Calm,Calm,-,N/A,Fog,Fog,0,2014-02-01 11:49:00
6:53 AM,70.0,69.1,97,30.10,0.2,Calm,Calm,-,N/A,Fog,Fog,0,2014-02-01 11:53:00
7:00 AM,69.8,69.8,100,30.11,0.2,Calm,Calm,-,N/A,Fog,Fog,0,2014-02-01 12:00:00
7:10 AM,69.8,66.2,88,30.11,0.2,ESE,3.5,-,N/A,Fog,Fog,110,2014-02-01 12:10:00
7:42 AM,69.8,68.0,94,30.12,0.2,ESE,3.5,-,N/A,Fog,Fog,110,2014-02-01 12:42:00
7:53 AM,70.0,68.0,93,30.12,0.2,SE,3.5,-,0.01,Fog,Fog,130,2014-02-01 12:53:00
8:01 AM,69.8,68.0,94,30.12,0.2,SE,3.5,-,N/A,Fog,Fog,130,2014-02-01 13:01:00
8:16 AM,71.6,69.8,94,30.12,0.8,SE,4.6,-,N/A,,Mist,130,2014-02-01 13:16:00
8:21 AM,71.6,69.8,94,30.12,2.0,SE,4.6,-,N/A,,Overcast,140,2014-02-01 13:21:00
8:31 AM,71.6,69.8,94,30.13,5.0,SE,4.6,-,N/A,,Scattered Clouds,130,2014-02-01 13:31:00
8:53 AM,73.0,71.1,93,30.13,9.0,SSE,5.8,-,N/A,,Clear,160,2014-02-01 13:53:00
9:53 AM,78.1,70.0,76,30.15,10.0,South,8.1,-,N/A,,Scattered Clouds,170,2014-02-01 14:53:00
10:53 AM,79.0,66.9,66,30.14,10.0,South,9.2,-,N/A,,Mostly Cloudy,180,2014-02-01 15:53:00
11:53 AM,82.0,68.0,62,30.12,10.0,SSE,8.1,18.4,N/A,,Scattered Clouds,160,2014-02-01 16:53:00
12:53 PM,82.0,69.1,65,30.10,10.0,SE,15.0,-,N/A,,Scattered Clouds,130,2014-02-01 17:53:00
1:53 PM,82.0,68.0,62,30.08,10.0,SE,16.1,-,N/A,,Scattered Clouds,130,2014-02-01 18:53:00
2:53 PM,82.0,68.0,62,30.07,10.0,SE,16.1,-,N/A,,Scattered Clouds,130,2014-02-01 19:53:00
3:53 PM,81.0,68.0,65,30.07,10.0,SE,12.7,-,N/A,,Clear,140,2014-02-01 20:53:00
4:53 PM,78.1,68.0,71,30.07,10.0,SE,15.0,-,N/A,,Clear,140,2014-02-01 21:53:00
5:53 PM,75.0,69.1,82,30.09,10.0,SE,11.5,-,N/A,,Clear,140,2014-02-01 22:53:00
6:53 PM,73.9,69.1,85,30.10,10.0,SE,10.4,-,N/A,,Clear,140,2014-02-01 23:53:00
7:53 PM,73.9,68.0,82,30.12,10.0,SE,8.1,-,N/A,,Clear,140,2014-02-02 00:53:00
8:53 PM,73.0,68.0,84,30.14,10.0,SE,5.8,-,N/A,,Clear,140,2014-02-02 01:53:00
9:53 PM,70.0,66.9,90,30.15,8.0,SE,5.8,-,N/A,,Clear,130,2014-02-02 02:53:00
10:53 PM,68.0,66.0,93,30.14,7.0,Calm,Calm,-,N/A,,Clear,0,2014-02-02 03:53:00
11:53 PM,66.9,64.9,93,30.14,1.8,Calm,Calm,-,N/A,,Clear,0,2014-02-02 04:53:00